Lapse_Rate
5.7 5.5 5.6 5.5 5.4 5.7 5.8 5.9 5.9 5.8 5.7 5.7 5.6 5.3 5.1 5.4 5.8 5.8 5.8 5.6 5.5 5.5 5.3 5.2 5.2 5.7 5.9
5.6 5.2 5.4 5.0 5.2 5.4 5.4 5.6 5.4 5.4 5.7 5.5 5.1 5.4 5.6 5.2 5.4 5.2 5.2 5.4 5.5 5.4 5.6 5.6 5.6 5.9 5.6
5.7 5.1 4.8 4.7 4.9 4.9 4.8 5.0 5.1 5.3 5.5 5.4 5.6 5.5 5.4 5.5 5.3 5.8 5.4 5.5 5.7 5.6 5.3 5.5 5.5 5.4 5.4
5.8 5.4 5.0 4.9 4.9 5.0 5.1 5.0 5.2 5.4 5.6 5.5 5.7 5.7 5.7 5.6 5.6 5.6 5.7 5.5 5.3 5.3 5.3 5.3 5.2 5.2 5.0
5.5 5.5 5.4 5.3 5.2 5.0 5.1 5.3 5.3 5.7 5.9 5.8 6.0 5.7 5.8 5.7 5.5 5.4 5.2 5.5 5.4 5.6 5.4 5.2 5.0 5.0 5.1
5.2 5.2 5.3 5.4 5.4 5.4 5.5 5.8 5.9 5.8 6.0 5.9 5.9 5.7 5.9 5.8 5.5 5.4 5.5 5.8 5.4 5.0 4.9 5.1 5.0 4.6 4.7
5.5 5.2 5.3 5.3 5.4 5.4 5.6 5.9 6.1 6.2 5.8 6.1 5.7 5.6 5.5 5.5 5.5 5.5 5.7 5.3 5.0 5.3 5.3 4.9 4.8 4.7 4.7
5.4 5.4 5.4 5.3 5.6 5.4 5.8 5.7 5.9 6.0 6.0 5.7 5.7 5.5 5.4 5.4 5.4 5.2 5.2 4.9 4.7 4.7 4.9 4.7 4.6 4.4 4.3
5.7 5.5 5.6 5.6 5.5 5.7 5.8 5.9 5.8 5.9 5.8 5.7 5.3 5.3 5.4 5.0 4.9 4.9 4.8 4.5 4.3 4.7 4.5 4.3 4.2 4.3 4.8
5.8 6.1 5.7 5.6 5.6 5.7 5.7 5.8 5.6 5.5 5.5 5.3 5.3 5.2 4.7 4.6 4.5 4.6 4.4 4.3 4.5 4.4 4.2 4.1 4.5 5.0 5.4
6.0 6.0 5.9 5.8 6.0 5.8 5.6 5.5 5.4 5.3 5.1 5.2 4.9 4.2 4.1 4.2 4.2 4.1 4.2 4.2 4.2 4.3 4.6 5.0 5.3 5.7 6.0
5.8 6.0 5.8 5.7 5.7 6.0 5.8 5.4 5.2 5.3 5.1 5.0 4.8 4.4 4.3 4.3 4.3 4.5 4.4 4.4 4.6 4.9 5.2 5.6 5.8 5.8 5.9
5.9 5.9 5.8 5.7 5.6 5.7 5.2 5.0 5.1 4.8 4.4 4.0 4.2 4.3 4.4 4.4 4.6 4.5 4.5 4.7 5.0 5.3 5.6 5.7 5.8 5.8 6.1
5.6 5.7 5.6 5.5 5.2 5.2 4.9 4.7 4.5 4.2 4.0 4.1 4.1 4.3 4.5 4.5 4.4 4.4 4.3 4.5 4.9 5.3 5.5 5.6 5.5 5.5 5.6
5.6 5.4 5.3 5.3 4.9 4.8 4.6 4.5 4.0 4.0 4.1 4.4 4.6 4.4 4.3 4.4 4.5 4.5 4.7 5.0 5.3 5.5 5.7 5.8 5.9 5.7 5.6
5.3 5.2 5.1 5.1 4.7 4.5 4.4 4.0 3.8 3.9 4.1 4.2 4.2 4.0 4.0 4.1 4.5 4.9 5.1 5.3 5.6 5.8 5.9 6.1 6.3 5.7 5.1
5.3 4.9 4.9 4.6 4.3 3.9 3.6 3.6 3.7 4.1 4.3 4.2 4.2 4.5 4.5 5.0 5.0 5.1 5.3 5.6 5.9 6.0 5.8 6.0 5.8 5.5 4.6
Wind_Speed
2 1 1 2 3 6 7 9 8 8 9 10 8 5 4 7 8 7 5 3 4 8 11 12 15 15 17
4 4 5 2 2 4 6 8 10 12 11 10 7 5 9 9 7 5 3 2 6 10 12 13 16 18 18
4 4 3 2 2 3 2 5 8 12 11 11 8 10 10 7 6 4 2 5 8 10 12 15 17 17 19
3 4 3 2 2 2 2 2 3 7 9 6 6 9 9 8 6 7 9 10 11 14 16 16 16 17 20
5 3 3 3 4 3 2 3 2 2 2 2 4 8 7 5 8 11 10 11 14 14 15 14 16 19 22
7 6 7 4 4 4 3 3 3 3 1 3 2 3 6 6 6 10 8 12 14 15 15 15 19 23 25
7 7 5 5 6 4 3 3 3 2 2 2 3 2 5 3 6 8 10 13 15 14 15 18 21 24 26
4 5 6 5 5 4 4 8 7 6 4 2 2 1 3 3 8 8 13 15 16 15 18 22 24 25 23
25 24 22 19 14 9 6 4 2 2 4 1 1 1 0 1 3 8 14 15 14 16 22 25 26 25 18
8 14 20 21 20 10 5 6 4 2 2 2 1 1 1 0 1 5 8 14 14 19 22 26 29 20 16
9 8 9 9 7 11 9 4 4 3 2 2 2 1 1 2 1 1 10 10 9 15 20 22 27 26 9
9 8 8 6 6 12 15 18 19 12 9 5 3 2 1 2 2 3 5 8 8 11 13 18 23 23 24
9 8 6 7 12 11 17 20 21 17 16 12 5 1 2 2 2 2 4 3 8 9 11 12 13 17 11
10 9 7 6 6 5 5 6 5 5 11 12 8 2 1 1 2 2 2 2 4 6 8 10 15 18 16
10 9 8 7 6 5 4 3 4 2 2 4 13 4 2 2 1 2 2 2 5 8 7 7 7 16 16
9 8 8 7 7 5 5 5 6 3 3 3 4 3 3 1 5 2 3 2 5 8 7 7 8 12 18
9 8 8 7 8 6 5 6 5 3 2 2 3 3 3 3 3 8 2 4 3 7 7 6 9 12 17
Wind_Direction
217 206 233 187 131 126 134 129 131 142 136 117 108 97 91 98 72 42 37 22 9 354 342 342 338 332 337
219 234 211 212 146 125 152 144 134 123 119 106 98 99 91 96 57 23 22 29 14 6 347 341 337 336 333
219 220 213 147 106 94 113 109 115 117 102 105 100 97 84 53 39 10 27 50 17 1 348 340 337 338 339
201 214 192 169 144 165 173 123 122 114 110 116 105 92 58 45 36 52 58 38 17 2 348 345 343 344 343
220 175 181 169 196 166 151 128 96 100 124 105 110 102 67 48 63 51 44 30 11 1 349 345 351 344 339
221 213 208 183 152 158 133 148 170 45 105 112 62 100 62 48 96 53 41 21 7 360 352 349 347 341 339
206 209 193 168 142 141 132 121 95 28 73 69 30 28 23 39 100 48 39 17 11 4 1 355 348 343 340
112 105 99 94 96 97 102 99 94 65 29 101 33 102 23 31 76 60 33 17 12 10 1 354 350 344 341
97 95 92 94 108 109 103 108 100 90 30 103 43 13 302 185 66 52 30 19 12 10 1 355 349 345 334
85 77 74 69 63 67 120 119 122 109 47 113 132 54 142 277 2 35 14 14 13 7 2 353 349 345 336
101 86 79 76 75 76 71 114 123 100 38 129 94 61 87 298 295 359 18 1 3 359 357 348 343 344 334
111 106 97 95 86 82 84 80 73 86 65 78 103 85 68 353 311 347 345 339 0 349 344 336 330 333 332
115 110 110 111 103 96 85 83 78 69 59 55 74 71 149 177 269 316 342 318 334 336 330 325 314 318 318
115 108 108 112 104 99 98 98 81 67 53 48 40 71 161 232 169 301 287 333 309 313 316 307 306 309 305
116 117 110 101 87 87 84 70 84 95 12 358 6 16 299 163 5 219 281 286 310 318 325 315 303 299 304
112 112 113 112 108 90 89 101 101 73 60 10 352 6 2 357 218 272 305 260 298 308 316 310 310 311 311
108 112 114 108 108 104 100 104 100 96 76 53 45 83 64 349 297 282 236 299 294 315 309 299 300 308 311